Voltar ao catálogo

STARLINK-37609

AtivoComunicaçõesSSO
NORAD 69036·PAYLOAD·🇺🇸 United States

Lançado May 6, 2026 de Vandenberg Space Force Base

Loading…

Próximas Passagens (próximas 24 horas)

TLE

AtualizadoSource: CelesTrak SupGP

Época: Sep 14, 2026, 15:34 UTC

1 69036C 26101M   26257.64909722 -.00020945  00000+0 -65023-3 0  2572
2 69036  97.2843 111.2404 0002085  87.6436 279.2666 15.33446032    11

Acompanhe STARLINK-37609 em tempo real com AllMySat

Download on the App Store